Theta_e
321 321 320 319 321 323 323 322 322 322 323 324 325 327 327 327 327 328 328 328 327 327 326 326 325 325 324 323 324 326 327 327 327 327 327 327 327 327 327 328 328 328 329 329 329 331 332 332 333 332 333 334 334 333 333 334 335 335 335 335 335 336 336 337 338 337 336 336 337 337 338 339 336 335 340 344 342 340 341 341 341 341 341 340 339
321 320 319 319 321 322 322 321 321 322 323 323 324 325 326 327 328 328 328 328 328 327 327 327 326 326 325 325 325 326 326 326 325 324 325 325 325 325 326 326 327 327 328 329 329 329 330 331 332 332 332 334 334 333 333 334 335 335 335 334 335 335 335 335 336 337 337 337 337 337 337 338 336 334 338 343 343 342 341 341 340 340 341 341 340
320 320 320 320 322 322 321 321 321 322 323 322 322 322 323 325 327 327 327 327 328 328 328 327 327 326 326 326 325 323 323 323 322 322 323 324 324 325 326 326 327 327 327 328 329 330 330 330 331 331 332 333 334 333 333 334 334 335 336 335 335 335 335 335 335 336 336 337 338 338 338 338 336 334 336 341 344 343 342 341 341 340 340 341 340
321 320 320 321 322 321 320 320 321 322 322 321 320 320 320 322 324 326 326 327 328 328 328 327 327 326 327 326 324 322 321 320 320 321 323 324 325 325 325 326 327 328 327 327 328 330 330 330 331 332 332 333 334 334 334 334 333 334 335 335 335 335 336 336 335 335 336 337 337 337 338 337 337 336 337 340 344 344 343 342 342 341 339 339 340
321 321 320 321 321 320 319 320 322 323 322 320 320 320 319 320 321 324 326 326 327 327 327 327 327 328 327 326 324 323 321 321 323 324 325 325 325 324 326 327 328 329 329 328 328 329 330 330 331 332 333 333 334 334 334 333 333 333 334 335 336 336 336 336 336 335 335 336 337 337 337 337 338 339 339 341 344 345 344 343 342 340 339 339 340
321 321 321 321 320 319 319 321 322 322 321 321 321 320 320 319 320 321 324 325 327 327 327 327 328 328 327 325 325 324 322 323 325 325 325 324 324 325 326 326 326 328 329 330 330 329 328 329 330 332 333 334 334 335 334 333 332 333 334 334 336 337 337 336 336 336 336 336 336 337 337 337 339 340 340 342 345 345 345 344 342 339 338 339 340
322 321 321 320 320 319 320 321 322 321 322 322 322 322 322 322 321 321 322 324 326 327 327 327 327 328 327 325 325 325 324 324 324 324 323 323 323 325 325 324 324 325 326 328 330 330 329 329 329 331 333 334 334 334 334 332 332 333 333 334 335 336 337 337 336 336 336 335 335 336 338 338 339 340 341 342 344 345 345 344 343 340 339 340 340
322 322 322 321 320 320 320 321 321 322 323 323 324 323 323 323 324 324 323 324 325 326 327 327 327 327 326 326 326 325 325 325 324 324 324 324 323 324 323 322 323 324 324 325 328 330 331 330 329 330 331 334 334 334 334 334 333 333 333 333 335 336 336 337 336 336 336 335 335 335 337 339 340 340 340 342 344 344 344 343 343 340 340 341 340
322 322 322 321 320 320 321 321 322 323 324 324 324 323 323 323 324 325 325 325 325 326 327 327 327 326 326 326 326 326 326 325 325 325 325 323 323 323 323 322 322 322 322 324 325 328 331 332 331 330 330 332 335 335 335 334 333 333 333 333 335 336 336 337 336 335 335 335 335 335 337 340 340 339 339 341 343 343 343 344 343 341 339 340 339
322 322 322 322 322 322 323 323 324 325 325 325 325 323 322 321 322 323 325 325 325 326 327 327 327 326 326 325 326 326 326 325 326 326 325 323 322 322 322 321 321 321 321 324 325 327 330 332 333 331 329 330 333 335 335 334 334 334 333 334 335 335 335 337 337 336 335 335 335 336 338 340 339 337 338 339 341 343 343 344 344 341 338 339 340
322 322 322 322 323 325 326 327 327 327 326 326 326 323 320 319 319 320 323 324 325 325 326 327 326 325 325 325 325 326 325 326 326 325 324 323 321 321 321 321 321 320 320 323 325 326 328 331 333 333 332 332 332 333 334 334 334 334 333 334 334 334 334 336 337 336 335 336 336 336 338 338 338 337 338 339 341 343 343 343 344 342 339 339 342
323 323 323 323 323 325 327 328 329 328 327 326 325 323 320 318 318 319 321 324 325 325 326 326 325 325 325 324 324 325 326 327 326 324 323 323 322 321 321 321 321 319 318 321 324 326 327 328 331 333 333 334 334 334 334 334 333 333 333 333 334 334 333 333 335 335 335 335 337 337 337 337 337 337 338 339 341 343 343 343 342 341 338 338 340
323 323 324 324 325 325 327 328 329 329 329 327 324 321 320 319 319 320 323 325 325 325 326 326 325 325 324 324 323 323 326 328 326 323 323 322 321 321 322 322 322 320 318 320 321 324 326 327 329 331 332 333 334 334 335 335 335 334 333 333 334 334 334 333 332 333 334 335 336 337 337 337 338 337 338 339 341 342 342 342 341 339 337 338 339
323 323 323 325 326 327 327 328 329 329 329 327 323 322 322 321 320 322 325 326 325 326 326 325 325 325 323 323 322 322 326 327 326 324 322 320 319 321 322 323 322 321 320 320 319 321 324 326 327 329 330 331 332 333 333 334 335 335 335 333 333 334 335 335 334 333 333 335 335 335 336 337 336 337 338 338 339 341 341 340 339 336 334 336 337
323 322 322 324 327 328 328 328 328 329 329 326 323 323 323 321 320 322 325 326 325 325 325 325 325 323 322 323 322 322 325 327 325 323 321 318 318 320 321 322 323 322 320 321 320 319 321 324 326 327 329 330 330 331 332 333 334 335 336 335 333 333 334 335 335 335 335 335 335 335 336 336 335 336 336 337 338 339 338 337 336 336 335 337 338
323 322 322 323 326 328 329 329 329 329 328 325 323 322 322 321 321 322 324 325 325 325 325 325 324 323 323 323 323 322 323 325 325 323 321 319 317 317 317 319 323 323 321 321 321 319 320 323 324 324 326 327 328 329 331 334 334 333 334 336 335 335 335 335 334 335 335 336 336 336 336 336 336 335 335 335 336 336 336 336 339 341 341 340 339
323 323 323 323 325 326 327 328 328 328 326 324 322 322 322 322 323 323 324 325 324 324 324 325 324 323 323 323 323 322 321 321 323 324 322 321 320 318 317 317 321 323 322 322 321 320 320 321 322 322 323 324 327 328 330 334 336 334 333 334 335 335 335 335 335 335 334 335 336 337 337 336 336 335 334 335 336 336 337 340 342 343 342 340 339
324 324 324 323 324 324 325 326 326 326 324 323 323 323 322 322 323 324 324 323 322 322 323 324 324 323 323 323 323 323 321 320 322 323 322 321 322 322 320 319 319 322 324 323 322 321 321 322 321 321 322 323 325 328 329 332 336 336 334 333 335 336 336 336 337 336 335 334 334 335 336 336 336 335 335 335 336 336 337 340 341 341 341 341 340
325 324 324 323 323 323 325 325 325 324 323 323 323 323 323 322 322 323 323 322 321 321 321 323 323 322 322 322 323 324 323 321 321 322 320 320 322 323 322 321 320 321 323 324 323 321 322 323 323 322 321 322 324 326 328 331 334 336 337 335 335 336 336 336 337 338 337 335 334 335 336 336 336 336 335 336 336 336 337 339 340 341 341 341 340
325 324 323 323 322 323 324 325 323 323 323 323 323 324 323 323 322 322 322 321 320 321 321 321 321 321 321 322 322 323 324 322 320 320 319 319 321 322 323 323 323 322 322 324 324 321 320 323 325 324 322 322 323 325 327 329 331 334 337 336 335 336 337 337 337 338 337 336 335 335 336 336 337 336 335 336 336 336 337 339 340 341 340 340 339
325 324 323 323 323 323 324 324 323 322 323 323 323 323 323 323 323 322 322 321 321 321 321 321 321 321 321 322 322 322 324 323 321 319 319 319 320 321 322 322 323 323 323 323 324 322 321 322 324 324 323 322 321 322 325 328 330 332 334 336 337 337 337 337 337 338 338 338 338 337 337 337 337 336 336 336 336 338 339 340 341 341 340 340 340
325 323 321 322 323 323 323 323 323 323 325 324 324 324 323 323 322 321 321 322 322 322 322 322 322 322 321 321 321 322 323 324 322 320 320 320 320 321 321 320 320 322 322 322 323 323 323 324 324 322 323 323 320 319 322 325 327 330 332 335 337 337 337 337 338 339 339 339 338 338 338 337 337 337 336 337 338 339 340 340 341 341 341 340 340
323 321 320 320 322 323 323 323 324 325 326 325 323 323 323 323 322 322 322 322 322 322 322 322 322 322 322 321 321 321 322 323 323 322 321 320 320 321 320 319 319 320 320 320 322 323 323 325 324 322 322 323 320 317 320 323 324 327 331 334 336 338 338 338 339 340 339 338 338 338 338 337 337 337 337 338 339 340 340 341 341 341 341 341 340
320 319 319 320 321 322 323 324 324 325 326 325 323 323 323 322 322 322 322 322 322 322 322 322 322 322 322 322 321 321 322 322 323 323 322 321 321 321 321 320 319 319 319 320 322 323 322 323 324 323 322 323 321 318 318 320 323 325 328 331 333 336 337 338 339 339 339 338 337 337 337 337 337 338 339 340 340 340 340 341 341 341 341 341 340
319 319 320 321 322 323 324 324 323 324 324 324 323 322 322 322 322 322 322 322 323 322 322 322 322 322 323 323 322 321 321 322 323 324 323 322 322 321 321 320 318 318 319 319 320 321 321 320 321 323 323 323 323 321 318 319 321 322 325 327 330 331 333 335 336 337 336 336 337 337 337 337 337 338 339 340 340 340 340 340 341 341 341 341 340
319 320 321 322 322 323 323 323 322 323 323 323 323 322 321 322 322 322 322 321 321 322 322 321 321 322 323 323 322 322 321 321 322 323 324 323 323 322 321 321 319 317 318 319 319 319 319 318 319 322 322 322 323 323 321 319 321 321 322 324 327 328 329 331 332 332 332 333 335 335 336 337 338 338 338 338 338 338 339 339 340 340 340 341 340
320 321 321 321 322 322 323 322 322 323 323 322 321 321 321 321 321 321 322 321 321 321 322 322 322 322 323 323 323 322 321 321 321 322 323 323 323 322 322 321 320 317 317 318 318 318 318 318 319 322 321 320 322 324 323 321 321 320 320 322 323 324 326 327 328 328 329 329 330 330 331 333 335 337 337 336 336 336 338 338 338 339 340 341 341
321 321 321 322 322 322 322 321 322 322 322 321 320 320 320 320 321 321 321 322 322 322 322 322 322 323 323 323 323 322 321 321 321 320 321 323 323 322 322 322 321 319 317 317 318 317 317 317 320 322 321 319 321 324 324 323 322 321 321 321 321 321 322 323 324 325 326 327 327 327 328 329 331 333 334 335 335 336 337 337 337 338 338 339 339
322 322 322 322 322 322 322 321 322 321 321 320 320 320 320 320 321 321 321 322 322 322 322 322 323 323 323 323 322 322 321 321 321 320 320 322 323 322 322 322 322 320 318 317 317 317 317 318 321 322 320 319 321 322 324 324 324 322 321 321 320 321 321 322 322 322 323 324 325 326 326 327 327 328 330 331 332 333 334 335 335 336 336 337 338
322 322 322 322 322 322 322 322 321 321 321 320 320 320 320 320 320 321 321 321 322 322 322 322 323 324 323 322 322 322 321 321 321 320 319 321 322 322 322 322 322 321 319 317 316 317 319 320 321 321 319 319 320 321 322 324 324 323 323 321 321 321 321 321 321 321 320 321 321 322 323 324 326 327 328 329 330 331 333 333 333 333 334 335 336
323 323 323 323 322 322 322 321 321 320 320 320 320 320 321 320 321 321 321 321 322 322 322 323 324 323 323 322 321 321 321 320 320 320 319 320 322 322 322 322 322 321 320 318 316 317 319 321 322 321 320 320 320 320 321 322 323 324 324 323 322 322 321 321 322 321 320 319 319 319 320 321 322 323 325 326 326 327 329 331 332 331 331 331 331
324 324 323 322 321 320 319 319 319 319 320 320 320 320 320 321 321 321 322 322 322 322 323 323 323 323 322 322 321 320 320 320 320 320 319 319 321 322 322 322 322 321 320 319 317 317 319 321 322 321 321 321 321 320 320 323 324 324 324 323 323 323 322 322 322 322 322 321 320 320 320 320 320 320 321 323 325 325 327 330 331 330 329 328 327
323 322 321 320 319 319 318 318 319 320 320 320 320 320 320 322 323 323 323 323 322 323 323 323 322 322 321 321 320 319 319 319 319 319 319 319 321 322 322 322 322 322 321 321 319 318 319 320 322 322 321 321 322 321 320 321 323 323 323 323 323 323 323 323 323 323 323 322 322 322 322 322 322 321 320 321 323 325 327 329 329 328 326 324 322
322 321 320 320 320 320 320 320 320 320 320 321 321 321 321 323 323 321 322 323 322 321 321 322 321 321 320 320 319 318 318 318 318 319 319 320 321 322 322 322 322 322 322 322 322 321 321 321 322 322 322 321 322 321 320 320 321 321 322 322 322 323 323 323 324 324 324 324 323 323 323 324 323 323 322 322 322 323 323 324 324 323 323 322 322
321 320 320 321 321 321 321 320 320 320 321 321 322 322 322 322 322 320 320 321 321 320 321 321 321 320 319 319 318 317 317 318 318 319 320 321 321 322 322 322 322 322 321 321 321 321 322 322 322 322 322 321 321 321 321 320 320 320 321 321 321 322 322 323 323 324 324 324 324 324 324 324 324 324 323 323 322 322 322 321 320 321 323 324 324
321 321 321 322 321 320 319 319 319 320 320 320 321 321 321 321 321 321 321 321 321 321 321 320 320 319 319 318 317 317 317 317 317 318 319 320 320 321 321 321 321 320 320 320 320 320 321 321 322 322 321 320 320 320 321 321 321 321 321 321 321 322 322 322 322 323 323 324 324 324 324 324 324 324 324 323 322 322 322 322 321 322 324 324 324
322 322 322 322 321 320 319 319 320 321 321 320 321 321 321 321 321 321 321 320 320 320 320 319 319 318 318 317 316 316 317 317 317 317 318 319 320 320 320 320 320 319 319 319 319 320 320 320 320 320 320 319 319 319 320 320 320 321 321 321 321 321 321 322 322 322 322 323 323 324 324 324 324 324 324 324 323 322 322 322 322 322 322 321 322
322 322 322 322 322 321 320 320 321 322 322 321 321 321 321 321 320 318 317 315 314 313 315 315 315 315 316 316 315 316 316 316 317 317 318 318 319 318 318 318 318 318 318 318 318 318 319 319 319 319 319 319 319 318 318 318 319 319 319 320 320 320 320 321 321 321 321 322 322 323 324 324 324 324 324 324 324 324 324 323 322 322 322 321 320
322 322 322 322 322 322 321 321 322 322 321 321 321 321 320 318 316 313 311 310 309 308 308 309 309 309 310 312 312 313 313 313 314 315 316 316 316 315 315 315 316 316 316 316 316 316 317 317 317 317 318 318 318 318 318 318 318 318 319 319 319 319 320 320 320 320 320 321 322 323 323 324 324 324 324 324 324 324 324 324 324 324 324 323 322
321 321 322 322 322 322 322 322 322 321 321 321 319 318 316 314 312 310 309 308 308 307 306 307 308 308 308 310 311 312 312 312 312 313 313 313 313 313 312 313 314 314 315 315 315 315 315 315 315 315 315 315 316 316 317 317 318 318 318 319 319 319 319 320 320 320 320 320 321 321 322 323 323 323 324 324 324 324 323 324 324 324 324 324 323
321 321 321 321 322 322 321 321 321 320 319 317 315 313 312 310 309 308 308 308 308 307 306 307 308 308 309 311 312 312 312 313 312 312 312 312 312 312 311 312 313 313 313 313 313 313 312 312 312 312 312 312 312 312 313 314 315 316 317 317 317 318 318 318 318 319 319 320 320 320 321 322 322 323 323 323 323 324 324 324 324 324 324 324 323
319 320 320 320 321 321 321 320 320 318 315 312 311 310 309 309 309 309 308 308 308 307 306 307 308 308 309 310 310 310 311 312 311 310 311 311 311 311 311 311 312 312 312 313 312 312 311 310 310 310 310 310 310 310 311 311 312 312 313 314 314 315 315 316 316 316 316 317 318 318 319 320 320 321 322 322 322 323 323 323 324 324 324 324 324
319 319 319 319 320 320 320 318 316 313 311 309 308 306 306 307 308 308 307 307 307 306 306 307 307 307 307 308 308 308 309 309 308 308 309 309 309 309 309 309 309 309 309 310 310 310 310 310 309 309 309 309 309 309 309 309 310 310 311 311 311 311 312 312 313 313 314 314 315 315 316 316 317 318 319 320 321 322 323 323 324 324 324 324 324
320 320 319 319 318 317 316 314 311 309 308 308 306 305 304 304 304 305 305 306 306 305 305 306 307 307 307 308 307 306 307 307 307 307 307 308 308 308 308 307 307 307 307 307 308 307 308 307 307 306 307 307 307 307 307 308 308 308 308 309 309 309 309 309 310 310 311 311 312 312 312 313 314 315 316 317 319 319 320 321 322 323 323 323 323
319 318 318 317 315 313 312 310 309 308 308 306 305 304 302 301 302 304 305 305 305 305 305 306 306 306 307 307 306 305 306 306 306 305 305 306 306 306 306 306 306 306 306 306 306 306 306 305 305 305 305 304 305 305 305 305 306 306 306 306 306 306 307 307 308 308 309 309 309 309 310 310 311 311 313 314 315 316 318 319 320 321 322 322 322
316 316 315 314 312 311 310 309 308 308 306 305 303 302 300 300 302 304 304 304 304 305 305 304 304 305 305 305 304 304 304 304 304 304 305 305 305 305 305 305 305 305 304 304 303 303 303 303 304 304 304 303 303 303 302 302 302 302 302 303 303 303 303 304 304 305 306 307 307 308 308 308 309 309 310 311 312 313 315 316 317 318 319 321 321
313 312 312 311 310 310 309 309 308 307 305 303 302 300 299 300 302 303 303 303 303 303 303 303 303 303 303 302 302 302 302 301 302 302 302 303 304 304 304 304 304 303 303 302 302 301 302 302 302 302 302 302 301 301 300 300 299 299 299 299 299 299 299 300 300 300 301 302 303 304 304 305 306 307 307 308 309 309 311 313 314 314 315 317 319
310 310 310 310 309 309 308 308 307 305 303 301 300 299 300 301 302 302 302 302 302 302 302 301 301 301 300 300 300 300 299 299 299 299 299 299 300 300 300 300 300 300 300 300 299 299 299 299 299 299 299 298 298 298 297 297 296 296 296 295 295 295 295 295 296 296 296 297 297 298 299 300 301 303 304 304 305 306 306 308 310 311 312 313 314
309 309 309 308 308 308 307 306 304 302 301 299 299 299 300 301 301 301 301 301 301 300 300 300 299 298 298 298 298 298 298 297 297 297 296 296 296 296 296 295 295 295 295 295 295 296 296 296 296 296 295 295 295 294 294 293 293 293 292 292 292 292 292 292 292 293 293 293 293 294 294 295 296 297 299 300 301 303 304 304 305 307 308 309 311
306 307 307 306 306 306 305 303 302 300 299 299 299 300 300 300 300 300 300 300 299 299 299 299 298 297 297 297 297 296 296 296 295 295 295 294 293 293 292 292 292 292 292 292 293 293 293 293 293 293 293 292 292 291 291 291 290 290 290 291 291 291 291 291 291 291 291 292 292 292 292 292 292 293 293 294 296 298 300 302 303 305 305 306 307
304 305 305 305 304 303 302 301 300 299 298 298 299 299 299 299 299 299 299 299 298 298 298 298 297 297 297 296 296 295 295 294 294 293 292 291 291 290 290 290 290 289 290 291 292 291 291 291 290 290 290 290 290 289 289 289 290 290 290 290 290 290 290 290 291 291 291 291 291 291 291 291 292 292 292 292 292 293 294 296 299 301 302 304 305
Wind_Speed
16 16 16 15 14 14 13 12 11 12 14 15 15 16 17 16 14 14 14 13 14 14 14 15 15 14 15 17 18 18 18 18 19 20 21 22 22 22 23 24 25 26 28 30 31 32 33 35 38 37 37 38 38 38 37 35 36 37 36 36 35 34 36 37 37 38 39 36 36 35 31 30 32 31 26 23 24 24 21 18 17 19 20 19 19
15 16 15 14 14 13 13 12 11 12 13 13 14 15 16 16 14 13 13 14 14 15 15 16 16 14 15 18 18 18 18 18 18 19 20 21 23 24 24 24 25 26 28 29 30 31 32 34 36 36 36 38 39 39 37 36 35 35 36 38 38 37 38 37 35 36 37 36 36 35 32 31 34 34 30 26 25 25 24 21 18 18 19 19 19
15 15 15 13 13 13 12 11 10 11 12 13 14 15 15 15 14 13 13 14 15 16 16 17 16 15 16 19 19 17 17 17 17 18 19 22 25 26 26 26 26 27 29 30 29 29 31 33 35 34 34 36 39 40 38 38 37 36 36 37 37 38 38 37 36 36 37 35 33 32 31 32 33 34 33 30 27 26 26 24 20 19 19 19 19
15 15 14 13 13 12 11 10 10 10 12 13 14 15 15 15 15 14 14 15 15 16 16 16 15 15 17 19 18 17 17 17 17 19 22 24 26 28 29 29 28 28 29 30 30 30 30 31 33 33 34 35 38 39 38 38 39 38 37 37 37 38 38 37 37 37 37 36 34 33 33 32 31 31 30 30 29 29 28 27 24 21 21 21 21
14 14 13 12 13 11 9 9 9 10 11 13 14 15 16 16 15 15 15 16 16 16 16 15 14 15 16 17 17 16 17 18 19 21 24 25 27 28 30 30 30 28 29 29 29 30 31 31 31 31 33 36 37 38 38 38 39 39 39 37 35 35 36 37 37 36 36 36 34 34 34 32 30 28 28 28 28 29 29 29 27 24 22 23 23
14 13 12 12 12 11 9 9 9 9 11 13 15 16 17 16 16 16 16 16 16 16 16 15 15 16 16 17 17 17 18 19 19 20 22 25 27 27 28 30 31 28 27 27 27 28 30 30 30 30 32 35 36 37 38 38 39 39 40 38 34 33 34 36 37 36 35 36 34 33 32 32 29 27 27 27 26 27 29 28 27 26 24 24 25
13 12 11 12 12 10 9 9 9 10 11 14 15 16 17 17 17 17 17 17 17 16 16 16 16 16 17 17 18 18 18 19 20 22 23 25 26 27 28 31 32 29 28 28 26 25 27 28 29 29 30 33 36 38 38 38 39 39 40 38 36 34 34 35 36 35 35 36 35 33 31 31 30 29 28 27 26 28 28 27 26 27 25 25 26
12 12 12 12 12 10 9 9 9 10 12 14 15 17 18 19 19 18 18 17 17 16 16 16 16 17 17 18 19 19 19 20 22 23 23 24 25 26 28 32 32 30 29 28 26 24 24 25 27 28 29 32 34 36 37 37 38 39 39 38 39 38 35 35 36 35 35 36 35 34 33 30 29 29 28 28 27 28 28 27 27 27 25 25 26
10 11 12 12 12 10 9 9 9 11 13 14 16 18 19 20 20 20 20 19 18 17 16 16 17 17 18 19 20 20 20 20 22 23 23 23 24 25 28 31 32 32 31 29 28 25 22 23 25 26 27 29 31 32 35 36 36 38 38 37 40 41 38 37 38 37 36 35 35 35 34 30 29 29 30 32 31 28 26 27 28 28 26 25 26
9 11 12 13 12 10 9 9 10 12 14 15 17 19 20 21 21 21 21 21 19 18 17 17 17 18 18 20 21 20 20 20 21 22 22 23 24 25 28 31 33 35 33 30 30 26 20 18 21 23 24 27 29 30 32 34 35 38 38 38 42 42 39 38 39 38 37 36 36 36 34 33 34 33 31 31 32 28 27 29 28 27 26 26 26
9 11 12 13 13 11 10 10 11 13 15 16 18 20 21 22 22 21 22 21 19 18 18 17 18 18 18 19 20 20 19 19 19 20 22 23 23 24 28 30 33 36 34 29 30 28 21 16 17 19 20 22 26 28 30 32 34 36 37 40 43 43 40 40 42 40 38 36 37 37 36 36 35 33 29 29 30 29 29 30 28 25 25 25 24
10 12 13 14 14 13 12 12 14 15 16 17 19 20 22 22 21 21 21 21 20 18 18 18 17 17 17 17 18 18 18 18 18 19 21 23 23 24 27 29 32 36 35 29 28 28 23 17 15 17 18 20 23 26 29 31 33 35 36 39 43 44 43 43 44 44 41 38 37 39 38 36 34 32 30 29 29 28 28 28 28 26 25 25 24
10 12 13 14 15 15 14 15 16 17 17 18 19 21 22 22 20 19 20 20 19 18 17 17 16 15 15 16 18 19 18 17 17 19 21 22 23 23 25 27 30 34 35 31 28 27 24 20 16 14 15 18 22 27 30 32 34 36 36 37 39 43 46 46 46 45 43 40 41 41 37 34 34 33 31 29 28 28 28 29 28 26 25 25 25
11 12 13 15 16 16 16 16 17 18 18 18 19 21 23 22 19 18 19 19 19 18 17 16 15 14 14 16 18 20 18 16 16 19 20 21 21 22 24 26 28 31 34 33 30 26 24 24 23 20 18 17 18 22 27 33 37 37 36 36 38 40 45 48 48 47 45 43 43 42 38 36 35 33 30 30 29 28 28 28 27 27 27 26 23
11 12 14 15 16 16 17 17 18 18 18 18 19 22 23 21 18 18 18 19 19 18 17 16 15 14 14 16 18 19 17 16 16 18 19 19 20 22 24 25 27 29 32 34 32 28 24 23 24 24 24 23 24 26 24 27 36 40 38 37 38 39 40 45 48 49 48 46 42 40 38 37 36 34 32 31 28 27 27 26 25 26 25 22 20
12 12 14 15 16 16 17 18 18 18 17 17 19 20 20 18 17 17 18 18 17 17 16 16 16 15 15 17 18 18 16 16 17 17 17 18 19 20 23 25 27 28 30 33 34 30 25 24 25 25 25 26 27 30 29 24 28 39 41 38 38 38 38 40 44 47 48 47 44 40 37 36 35 34 35 33 29 27 25 23 21 21 20 19 20
12 13 14 15 16 16 17 18 18 17 15 15 17 17 16 16 16 16 16 16 17 17 16 16 16 16 16 18 19 19 18 17 17 17 17 17 18 19 21 25 27 28 29 31 32 30 27 26 27 27 27 26 27 30 31 24 21 31 40 40 37 37 39 39 40 43 45 46 46 43 39 37 35 35 35 34 31 27 24 23 23 23 23 23 24
13 14 15 15 16 17 18 18 17 15 14 14 15 15 16 17 16 16 16 17 17 17 16 16 17 17 17 18 19 20 19 18 16 16 16 16 17 19 20 22 26 28 29 30 28 27 28 30 32 32 31 29 27 30 32 27 18 21 33 39 38 36 38 39 38 39 41 43 46 46 44 41 39 37 36 35 33 30 28 27 26 24 25 25 25
13 14 15 17 18 18 18 17 15 14 14 14 15 15 16 17 17 17 18 18 18 17 17 17 18 18 18 19 19 20 20 19 16 15 15 15 16 17 19 21 23 25 28 29 26 25 27 31 33 34 34 32 29 29 32 31 22 16 23 32 37 37 38 38 37 37 37 39 42 44 45 45 42 40 38 36 34 33 31 29 27 26 25 25 26
14 15 17 19 19 18 17 16 15 15 15 15 16 15 16 17 18 18 18 18 18 17 17 18 19 19 19 18 19 19 20 19 17 15 15 15 16 17 18 20 22 23 24 26 25 24 27 31 33 34 34 35 36 33 32 33 28 16 15 24 31 35 35 35 37 38 37 37 40 42 44 46 44 40 38 37 34 33 32 31 29 28 27 26 27
14 16 19 21 19 18 17 16 16 16 16 17 17 17 16 16 17 18 18 19 18 18 18 19 20 20 19 18 18 18 19 19 17 14 14 14 15 17 18 19 21 22 23 24 23 22 24 28 31 34 35 36 40 40 34 33 33 22 8 16 24 29 31 32 34 36 35 33 35 38 41 43 43 40 39 37 35 33 32 31 29 28 28 27 27
16 18 20 21 20 19 18 18 18 18 18 17 16 17 17 15 16 17 18 19 20 20 20 21 21 21 20 18 18 18 17 17 16 15 14 14 15 16 17 18 19 20 21 22 22 21 20 23 27 32 33 33 38 41 37 33 34 30 16 5 13 21 27 31 31 32 32 30 32 36 39 41 41 40 38 37 35 32 30 30 29 28 28 27 26
18 19 19 19 20 19 18 19 20 21 21 19 18 19 19 16 15 16 18 20 21 21 21 21 21 21 20 19 18 18 17 15 15 15 14 14 14 15 16 18 19 19 19 20 21 22 23 22 23 26 29 29 33 38 40 35 32 32 27 17 6 9 22 29 30 28 28 28 30 33 36 38 39 38 36 35 34 30 28 28 28 28 27 27 27
19 19 18 17 17 17 17 19 20 21 22 21 20 20 20 19 18 18 19 20 21 22 21 20 19 20 20 20 19 18 17 15 14 15 14 14 14 14 16 17 18 18 18 18 19 20 22 22 20 22 26 27 27 32 37 36 32 32 31 26 18 7 8 20 25 27 27 28 29 30 32 34 35 34 34 33 31 28 27 27 28 28 28 27 28
18 17 16 15 15 15 16 18 19 19 20 20 19 18 19 19 19 18 18 18 20 22 21 19 19 19 19 20 20 18 17 15 14 14 14 14 13 14 16 17 18 17 17 17 17 17 19 20 19 20 23 25 23 25 31 34 33 31 29 27 26 22 13 4 11 18 22 24 27 30 30 31 32 32 32 31 28 26 27 28 28 28 28 27 27
17 16 16 16 16 17 17 18 19 19 17 17 17 16 17 19 19 18 18 18 19 21 21 20 19 19 19 18 19 18 17 15 14 14 14 14 13 13 15 17 17 17 16 16 16 15 16 18 19 19 21 23 21 20 24 28 30 31 30 26 25 25 23 19 14 13 16 19 22 24 25 27 29 30 29 27 25 25 25 27 27 28 28 28 27
16 16 16 17 18 18 17 18 18 16 15 15 16 16 17 18 19 19 19 18 18 20 22 21 19 19 18 18 18 18 16 16 15 14 14 14 13 14 15 17 18 18 16 15 15 15 15 17 17 16 18 21 19 16 19 22 24 28 31 28 25 24 22 20 19 19 19 19 19 20 21 22 24 25 25 23 23 24 25 25 26 26 26 25 24
15 16 17 18 19 19 17 15 13 11 12 13 14 16 17 17 17 17 17 18 19 20 21 21 20 19 18 17 17 17 16 16 16 15 14 14 14 13 14 16 17 17 16 15 15 14 14 15 14 12 14 18 18 15 15 18 20 24 27 29 28 26 23 20 18 19 18 16 16 17 18 19 19 19 20 20 21 23 23 23 23 23 23 23 23
15 16 18 19 19 18 17 16 14 13 13 14 15 17 19 17 16 17 17 18 19 21 21 21 20 18 16 16 17 18 17 16 16 16 15 15 14 13 13 15 17 17 16 15 14 13 13 14 12 10 11 15 18 17 14 14 16 19 22 25 27 27 27 26 24 22 19 16 14 14 13 14 16 15 14 14 15 16 18 20 20 19 19 21 22
15 17 17 18 19 21 22 21 19 17 17 17 17 17 18 17 17 17 18 18 19 21 21 20 19 17 16 15 15 17 17 17 17 16 15 15 13 12 12 14 16 16 15 15 13 12 12 14 13 11 10 12 16 18 16 13 13 15 17 20 23 25 27 28 27 25 22 20 18 16 14 13 14 15 15 14 13 13 14 16 16 15 13 15 19
16 17 18 19 20 23 25 25 23 21 20 19 17 14 14 15 16 16 17 17 19 20 20 19 17 17 16 15 15 16 16 17 17 16 15 14 13 11 10 11 14 15 15 14 12 9 11 13 13 12 10 10 13 16 17 14 13 14 15 16 18 21 23 24 24 23 22 22 21 20 18 16 14 14 15 16 16 17 16 15 15 16 15 15 17
16 17 18 19 20 21 21 21 20 20 19 19 17 15 14 13 14 15 16 16 17 17 17 17 16 16 16 16 15 15 15 15 16 15 14 13 12 11 10 10 12 13 14 13 11 8 9 11 13 13 11 9 10 14 15 13 12 12 13 13 14 16 18 19 19 19 20 20 21 21 21 20 18 16 15 16 17 18 18 17 17 17 16 16 17
14 15 16 17 17 16 16 15 14 14 15 15 15 14 12 10 11 13 14 14 15 16 15 14 14 15 15 14 13 13 13 13 13 13 13 13 12 11 10 9 9 10 11 12 11 9 8 9 11 13 12 10 9 11 13 13 12 11 12 12 12 11 12 13 14 16 17 17 18 19 20 20 19 18 16 16 17 18 19 17 15 15 14 12 12
13 14 16 15 14 13 12 11 11 11 10 8 8 10 10 8 8 10 11 12 13 13 12 12 12 12 12 11 11 11 11 11 12 12 12 13 12 10 9 8 7 8 10 11 11 10 9 8 9 11 12 11 10 9 10 11 11 11 12 13 11 9 9 9 10 11 12 13 13 14 16 17 17 17 17 17 16 15 15 14 13 12 11 11 11
13 14 14 13 11 11 11 11 10 9 7 5 4 6 7 6 5 7 9 10 10 9 9 10 10 9 8 9 10 10 10 10 10 11 12 12 12 9 7 7 6 7 9 10 10 11 10 9 8 9 11 11 10 10 10 10 10 10 10 11 11 10 10 10 10 10 11 10 9 10 10 11 13 14 15 15 16 15 13 12 11 10 10 10 10
11 12 12 10 10 12 13 12 10 8 7 6 5 6 5 3 4 6 7 7 7 7 7 7 7 6 7 8 9 9 10 10 10 12 13 12 11 9 6 5 6 7 8 9 10 11 11 10 10 9 10 11 11 10 10 10 10 10 10 9 9 10 10 10 10 10 11 10 11 11 9 7 7 9 10 10 11 12 12 10 9 8 9 9 9
9 9 9 9 11 13 13 11 9 7 6 7 5 2 3 3 4 5 4 4 4 4 4 4 4 5 7 7 8 8 9 10 10 11 10 9 7 6 6 7 9 9 10 11 11 11 11 12 12 11 11 12 12 12 11 10 10 10 10 10 10 10 10 10 10 10 10 10 11 11 9 8 7 7 6 5 5 6 8 9 8 7 6 7 7
8 8 8 10 12 12 11 9 6 3 4 6 4 0 2 3 3 3 3 3 3 2 1 2 3 5 5 5 4 5 7 8 7 7 6 6 5 6 8 9 10 11 12 13 13 13 13 13 13 13 13 13 13 13 13 12 11 11 10 10 10 10 9 9 9 9 9 10 10 9 9 9 8 6 5 4 4 3 4 7 7 6 5 4 4
8 8 9 11 11 9 6 5 2 3 4 3 1 2 3 3 4 6 6 6 6 5 3 1 1 2 1 1 3 5 7 7 7 7 8 9 9 10 10 10 10 12 13 14 14 15 15 15 15 15 15 14 14 14 14 13 13 13 13 12 11 10 9 8 9 9 9 10 10 9 9 8 7 7 6 5 4 4 3 3 3 4 5 4 4
7 8 9 9 7 4 1 1 1 1 2 3 4 5 5 4 5 7 7 6 6 6 5 4 4 4 5 5 5 6 7 6 6 8 10 10 10 11 12 12 12 13 13 14 14 15 15 15 16 16 16 16 16 15 14 14 13 13 13 13 13 12 12 11 10 10 10 10 10 9 9 8 7 6 6 5 4 2 1 1 1 1 3 4 5
7 7 6 5 3 1 1 1 1 2 4 6 7 6 5 5 6 5 5 4 3 4 5 5 5 6 7 5 5 6 4 3 6 8 8 6 8 12 12 11 10 11 12 13 14 15 15 15 15 15 16 16 16 15 15 14 14 13 13 13 13 13 13 13 13 12 11 11 11 10 10 8 6 5 4 4 4 2 0 1 1 2 3 4 5
6 4 3 2 1 1 1 2 4 6 7 7 6 5 4 4 4 3 3 3 2 3 4 4 4 5 4 4 5 5 3 5 6 6 4 4 8 10 9 7 7 9 10 11 12 12 12 13 13 14 14 14 14 14 13 13 14 14 13 13 13 13 13 13 13 14 13 13 13 13 12 11 10 7 5 4 3 2 1 1 1 1 1 1 3
6 4 2 1 1 2 4 5 7 8 6 5 5 5 5 3 2 2 2 2 2 3 3 4 3 3 3 3 3 4 3 3 4 3 2 6 8 8 7 7 8 9 10 11 10 9 9 11 12 13 13 14 14 13 13 12 12 13 12 12 13 13 12 12 12 12 13 14 14 15 15 14 13 12 10 8 6 4 3 3 3 3 2 2 2
6 5 4 3 3 5 6 7 7 6 5 5 5 5 4 3 2 2 2 2 3 4 4 3 2 2 2 1 2 4 3 2 2 4 5 6 6 6 6 7 8 9 10 11 10 9 10 11 12 13 13 13 13 13 13 12 12 12 12 12 12 12 11 11 11 11 11 12 12 13 13 13 13 13 13 12 10 8 6 5 4 4 5 5 4
6 5 5 4 4 5 5 5 4 4 4 5 5 5 4 3 2 2 3 3 5 5 4 3 3 3 3 3 4 4 4 4 5 5 5 5 5 5 5 6 7 9 10 11 11 11 12 12 13 13 13 13 12 12 12 12 12 12 13 13 13 13 13 12 12 11 11 11 11 11 11 11 11 11 11 12 11 10 9 7 5 3 4 6 6
5 5 4 4 3 3 3 3 3 4 5 5 4 3 2 3 4 4 4 5 6 6 5 4 4 4 4 4 4 3 2 3 4 5 5 4 5 5 6 7 9 10 11 11 11 11 11 12 12 13 13 13 13 12 12 12 12 12 12 12 12 12 12 12 12 12 11 11 11 11 10 10 10 9 9 9 9 9 8 8 7 5 3 3 4
4 3 3 2 2 2 2 2 3 4 4 4 3 2 2 4 5 5 6 7 8 7 6 6 6 4 3 3 3 2 2 3 4 4 4 5 6 8 8 9 11 12 12 13 13 12 12 11 11 12 12 13 13 13 13 13 12 12 12 11 11 11 11 11 11 12 12 12 12 12 12 11 11 11 10 9 8 8 7 7 7 7 7 5 3
3 2 2 1 1 1 2 2 3 3 3 2 2 3 4 6 6 6 6 7 7 7 7 6 5 4 3 2 2 1 2 3 4 4 5 6 7 8 9 10 10 11 12 12 12 12 12 12 11 11 11 11 11 11 11 11 12 12 11 11 11 11 10 10 10 11 11 12 12 12 12 12 12 12 12 12 12 11 9 8 8 7 8 8 7
2 1 1 0 0 1 1 2 2 2 3 4 5 6 7 7 6 6 6 6 6 6 6 5 4 4 3 3 2 2 2 2 3 4 4 5 6 7 7 8 7 7 8 8 9 9 10 10 10 10 9 9 9 9 9 9 10 10 10 10 10 11 11 11 11 10 10 11 11 11 11 11 11 11 11 11 11 11 11 11 10 9 8 7 7
2 1 0 0 0 1 2 2 3 5 6 8 8 7 7 7 7 6 6 6 6 6 5 5 5 4 4 3 3 2 2 2 2 3 3 3 3 4 4 4 4 4 4 5 5 6 7 8 8 9 9 9 10 10 9 9 9 9 10 10 10 11 11 11 11 11 11 10 10 11 11 11 11 11 11 11 10 10 10 10 10 9 9 8 6
1 1 1 0 1 2 3 4 6 7 9 10 9 8 7 6 6 5 5 5 5 5 5 4 4 3 3 3 3 2 2 2 3 4 4 3 2 2 2 3 4 5 5 4 4 5 7 8 9 10 11 12 12 11 11 11 11 10 10 11 11 11 11 11 11 11 11 11 11 11 11 11 11 11 11 12 12 11 10 9 9 8 9 9 8
Wind_Direction
322 324 325 324 321 319 319 318 317 322 329 336 342 344 343 340 331 325 324 323 323 322 320 321 324 328 332 332 329 326 324 322 322 323 322 322 321 317 312 306 298 293 288 285 281 276 272 269 266 263 262 258 253 251 252 250 251 251 249 249 249 248 246 245 249 253 253 252 252 255 257 257 258 256 249 241 240 241 237 232 230 230 230 230 232
320 321 322 320 317 315 315 312 312 319 327 335 341 342 342 341 335 329 326 324 321 318 314 314 316 319 326 329 326 322 321 319 318 322 324 326 327 325 321 315 307 300 293 286 280 276 274 271 267 264 262 258 253 250 250 248 246 247 247 248 250 250 247 248 251 251 252 252 252 254 254 254 257 255 249 242 239 240 239 238 235 232 230 230 233
316 318 319 316 312 311 310 307 309 319 326 330 334 335 334 335 333 329 328 326 323 320 315 311 309 308 316 324 324 321 321 319 318 320 323 326 328 327 324 319 314 307 300 292 283 277 276 273 269 265 261 258 255 251 248 246 245 245 246 248 249 250 249 249 249 248 248 250 250 251 251 253 256 255 250 244 239 238 241 244 244 240 236 234 234
313 315 316 312 309 309 306 303 309 318 323 324 326 327 326 326 327 325 324 325 326 325 322 316 311 306 311 319 323 322 322 321 322 323 324 325 325 326 325 320 314 309 303 296 286 278 275 274 270 265 260 256 254 250 246 245 246 246 247 249 249 250 249 248 247 246 246 248 248 248 250 253 255 255 250 244 237 236 240 244 248 247 242 237 236
309 312 313 309 306 306 301 300 309 315 318 320 321 322 320 319 319 319 319 321 323 325 324 322 317 310 311 317 319 320 324 326 327 329 329 327 324 327 330 328 321 312 303 297 289 280 274 271 269 266 260 255 251 248 246 247 248 247 248 248 247 247 246 244 243 243 244 246 247 247 248 250 251 250 247 243 238 236 238 243 247 247 243 239 237
305 309 309 305 303 303 297 296 303 309 313 317 320 321 319 317 315 315 317 319 321 322 322 321 319 313 312 315 314 317 325 328 327 326 326 326 325 328 334 336 332 324 313 305 295 284 276 271 268 266 262 255 249 246 247 249 248 247 246 245 243 241 240 238 238 239 241 245 246 245 246 247 246 245 243 239 235 235 238 241 244 243 240 238 237
303 306 303 300 300 299 295 294 298 304 309 315 319 321 321 320 317 315 316 316 318 320 319 319 320 317 315 313 311 314 320 322 323 323 324 324 325 328 335 338 337 334 327 317 305 292 282 273 268 266 263 257 249 246 247 249 248 247 246 244 241 237 236 236 236 237 239 244 245 243 242 243 243 243 241 238 234 234 236 238 240 241 238 236 236
300 302 298 296 298 297 296 296 298 302 308 313 317 320 322 323 322 321 319 316 315 315 315 317 319 319 317 312 308 309 313 316 319 321 322 322 322 328 337 341 339 335 330 324 314 302 288 277 270 265 263 259 252 246 245 246 246 247 246 244 240 235 232 233 236 236 238 242 244 242 240 239 240 242 240 238 236 236 234 235 239 239 238 238 238
297 299 295 295 296 296 297 298 300 305 309 311 313 316 318 320 321 322 322 318 314 310 310 314 318 319 317 313 308 307 310 314 318 320 321 322 323 331 339 342 342 339 334 330 325 314 298 284 275 268 265 261 254 249 246 245 245 246 246 244 239 233 231 233 236 236 237 239 241 240 237 234 236 239 239 236 235 236 234 233 236 237 238 242 241
295 297 295 293 291 292 296 298 302 308 310 309 309 311 315 317 318 320 321 319 314 307 306 310 316 317 316 312 309 308 311 315 318 321 323 323 328 337 342 342 344 345 341 336 334 326 310 292 281 275 270 263 257 254 250 247 247 248 248 246 240 235 232 233 235 237 236 237 238 237 233 232 236 239 241 237 232 231 232 233 236 238 239 242 242
292 296 295 289 283 286 293 298 303 308 310 308 305 308 313 315 315 316 317 317 313 307 306 309 315 316 314 313 312 312 317 319 318 322 326 328 333 340 342 342 346 350 348 341 338 335 323 299 283 279 276 270 264 262 258 253 250 250 250 247 244 242 239 235 234 237 238 237 237 237 233 233 237 239 238 234 228 227 229 232 234 235 235 238 241
289 296 295 286 279 282 288 294 300 305 309 308 305 308 313 314 313 313 314 315 313 310 309 311 315 316 315 317 317 317 320 319 317 323 331 335 339 340 341 344 350 355 356 350 344 344 339 321 296 281 277 273 269 267 264 260 255 252 251 248 246 246 244 241 238 240 241 237 233 234 235 235 236 236 234 230 226 225 227 229 231 232 234 236 238
288 296 295 288 282 283 286 288 294 300 306 307 306 309 315 315 312 311 312 314 313 312 313 312 313 315 317 320 321 320 321 318 317 326 333 337 342 341 340 346 353 358 1 359 352 349 353 356 344 316 296 283 274 268 263 261 259 256 252 250 247 245 244 243 242 242 241 238 233 234 237 236 233 232 231 229 226 225 226 228 229 230 233 234 237
286 294 295 292 287 287 286 286 290 295 300 305 306 309 313 313 310 309 310 312 312 312 312 310 310 315 318 318 318 318 319 316 318 328 333 336 344 346 343 347 352 357 2 4 359 352 353 1 2 351 338 326 312 294 272 258 254 253 252 249 247 244 242 241 241 241 240 238 237 238 239 237 236 233 230 230 229 227 228 231 234 237 239 238 240
283 292 295 295 293 291 290 288 290 292 296 301 305 309 311 310 306 305 307 309 311 312 310 307 309 315 317 317 319 319 319 317 320 328 331 335 345 349 348 350 352 355 0 3 2 358 354 357 359 354 348 346 344 334 308 271 251 246 247 247 244 241 240 238 238 239 239 237 237 237 237 238 239 236 233 233 233 233 236 241 245 246 244 240 239
281 290 294 297 298 296 294 292 291 290 292 299 305 310 313 312 307 305 306 308 311 312 309 306 308 312 316 321 325 324 320 317 318 324 328 336 345 349 351 353 353 354 360 3 4 4 2 359 358 355 351 350 348 341 329 301 259 242 239 242 242 238 237 237 237 236 237 236 236 235 235 237 237 237 237 239 239 238 239 239 236 232 230 230 232
280 289 293 297 298 296 292 287 285 285 288 296 305 311 316 317 314 311 310 312 313 312 309 305 305 308 313 322 328 329 325 319 318 322 326 332 342 347 349 354 354 353 357 4 9 13 14 10 6 2 358 355 350 344 338 322 278 244 234 235 238 237 235 236 238 238 236 235 235 235 235 235 236 237 238 239 240 236 229 224 221 219 220 223 225
280 290 294 294 292 291 287 281 278 280 284 292 301 310 316 317 316 315 315 317 317 315 310 304 304 306 311 319 325 328 329 325 320 324 328 330 336 341 345 351 355 354 355 1 12 19 19 17 16 11 4 359 354 351 351 343 309 256 236 232 234 236 234 232 235 239 237 233 233 235 235 235 236 238 239 240 239 232 223 220 219 218 220 222 225
282 292 293 289 288 291 290 284 278 279 283 288 295 304 311 313 313 315 317 318 319 318 313 308 307 308 311 315 318 322 327 329 324 323 329 331 332 335 338 343 350 355 354 356 7 17 17 15 17 16 9 4 360 357 0 359 341 286 245 234 232 233 233 229 229 234 234 230 228 229 231 234 235 237 239 241 237 229 223 221 220 220 223 225 226
286 292 290 287 287 291 291 284 278 279 283 287 291 296 303 308 311 314 315 316 318 318 316 312 310 310 310 312 314 317 322 327 326 323 328 332 332 333 334 336 341 349 350 350 358 11 14 10 12 15 13 10 7 1 3 8 0 325 257 238 238 238 236 232 230 231 232 229 225 224 226 229 231 233 237 236 230 223 220 220 220 222 224 225 227
284 289 288 287 289 291 288 281 278 280 284 288 290 291 294 302 310 312 313 313 314 315 316 314 312 311 311 312 314 316 319 323 325 324 327 331 331 332 334 335 337 340 344 348 352 1 9 10 8 9 11 13 10 4 2 9 10 358 296 244 246 245 239 234 231 229 229 229 225 221 222 226 228 231 232 229 223 219 219 219 218 220 222 223 226
279 283 284 286 288 288 285 282 281 279 278 284 293 294 290 294 305 309 309 310 311 311 313 316 316 315 314 314 315 316 317 321 324 324 326 331 332 332 332 334 337 338 341 348 351 351 359 8 9 7 8 11 12 7 4 9 12 8 3 303 256 246 234 230 229 224 222 223 221 218 219 222 224 225 224 221 218 217 218 218 217 218 220 221 224
275 279 282 286 287 287 285 285 284 279 274 278 289 290 285 287 298 304 305 306 308 309 311 315 318 318 318 317 316 317 317 318 321 323 326 329 332 332 331 332 336 339 342 346 348 349 352 360 6 6 4 9 17 12 7 11 13 9 13 23 359 241 218 217 222 221 216 215 215 215 216 217 216 216 217 218 218 217 217 217 217 217 218 219 221
273 279 286 290 289 287 286 287 287 284 279 279 282 281 281 286 291 296 300 303 304 307 310 314 317 318 319 319 317 318 319 318 317 321 325 328 332 335 336 334 333 337 342 345 346 350 353 355 4 7 0 4 18 19 11 13 17 14 15 26 31 33 188 200 209 214 212 210 209 210 210 209 209 211 214 216 215 214 215 214 214 216 217 218 221
273 281 289 293 290 286 285 287 292 292 286 284 283 281 282 286 287 290 295 298 301 305 308 314 318 318 319 321 320 321 324 322 317 318 321 324 330 337 342 341 337 337 342 346 347 348 349 351 358 5 0 359 13 23 18 17 21 23 21 26 34 39 45 95 182 190 192 195 200 203 203 204 207 210 212 212 209 208 212 212 212 215 217 219 221
275 281 286 289 289 288 286 288 293 293 285 280 281 281 281 285 289 292 291 292 299 304 306 310 317 317 317 321 322 323 327 326 319 317 318 319 324 334 342 346 344 341 340 345 349 348 348 352 357 2 2 1 7 22 25 22 23 29 31 29 33 40 44 46 66 103 126 143 162 176 183 190 199 204 207 207 204 204 211 215 214 216 220 220 218
275 278 282 285 288 291 291 292 295 292 280 272 274 278 281 286 290 290 288 289 294 300 303 306 311 314 317 322 323 323 326 326 323 321 319 318 321 330 340 347 349 346 344 346 351 352 350 354 360 3 4 6 8 19 29 28 27 34 40 39 35 36 41 45 53 63 77 95 113 125 135 152 171 185 196 205 207 209 214 215 215 218 218 212 205
274 276 279 280 284 289 294 298 298 291 279 276 277 278 282 288 291 288 286 287 289 293 300 304 307 312 318 321 321 323 325 325 324 324 323 321 322 327 336 345 351 351 349 349 352 354 353 356 3 6 6 10 14 20 28 33 33 37 43 46 45 43 44 48 52 56 59 66 78 90 104 116 129 149 170 185 195 203 208 208 210 213 207 196 191
273 275 275 279 285 293 299 302 296 283 276 277 277 277 280 285 285 282 282 285 287 290 296 299 302 308 316 319 319 321 323 323 324 326 325 323 322 325 331 342 350 353 354 352 352 353 357 2 10 14 10 13 19 24 28 31 36 41 45 47 48 50 51 52 54 55 57 60 64 68 76 84 91 104 127 146 163 180 193 196 196 199 198 192 192
277 278 280 287 295 299 299 299 295 288 282 280 277 276 277 275 272 274 280 284 285 287 291 296 299 304 311 315 315 316 318 320 321 324 326 324 320 319 325 337 347 352 355 357 356 357 4 11 15 18 18 18 20 23 28 32 37 41 44 46 50 52 53 54 56 57 58 61 63 64 67 73 80 86 93 100 112 130 153 169 170 168 174 180 181
282 285 291 295 296 294 292 292 291 289 286 282 276 269 266 267 270 273 277 279 279 282 287 291 295 301 306 310 312 311 311 313 315 318 324 325 319 313 316 329 341 350 356 359 0 5 11 14 17 21 26 29 25 23 27 37 44 41 37 40 48 52 54 56 59 60 62 64 67 68 70 72 75 79 84 86 89 96 109 121 124 119 120 129 135
290 295 300 298 296 294 293 293 291 289 286 281 273 263 261 269 275 274 271 272 275 279 283 286 291 299 304 307 311 312 310 311 314 316 321 324 319 310 310 322 336 346 353 358 6 17 18 15 17 22 27 31 31 27 27 34 44 45 40 41 45 49 51 54 57 59 63 67 69 71 71 71 72 72 78 84 89 92 96 103 108 108 108 109 110
297 300 299 297 300 305 305 301 297 295 295 289 277 269 264 262 263 265 266 269 272 274 276 282 289 297 303 308 315 318 316 316 320 325 331 334 327 313 309 320 332 341 349 0 15 26 24 15 16 21 26 32 35 35 34 37 43 46 46 48 52 54 54 52 51 53 56 61 67 71 70 70 70 69 71 78 86 93 98 103 107 108 107 102 97
296 297 294 295 305 315 315 309 308 309 308 299 278 268 262 248 244 255 261 260 260 261 267 278 287 293 301 310 317 320 320 321 327 338 347 349 341 328 317 314 322 333 347 4 21 30 29 22 19 21 26 33 40 46 46 46 47 47 45 44 48 55 57 50 44 43 44 48 58 66 67 67 70 72 72 72 74 81 92 98 98 96 97 96 94
291 293 294 298 310 319 314 312 317 323 326 329 294 268 262 252 241 246 250 250 249 249 257 271 281 287 298 310 317 322 326 329 336 346 353 353 349 340 318 300 312 338 354 7 22 31 35 36 32 29 30 35 43 53 56 53 51 52 49 44 43 46 47 43 35 32 32 34 41 51 58 64 71 75 76 75 73 72 78 88 94 92 92 95 94
286 288 293 302 316 319 313 312 323 332 341 346 321 279 262 247 223 221 230 239 240 238 246 260 270 280 296 310 317 322 330 337 342 345 348 350 350 345 333 334 356 11 19 25 31 37 44 49 49 45 43 45 49 55 58 57 56 57 56 54 53 51 48 45 39 33 30 30 35 43 46 50 64 74 76 76 81 82 81 81 85 86 87 89 90
286 289 300 315 324 320 314 319 330 336 345 353 339 267 217 209 203 198 205 218 221 227 239 248 261 272 283 298 310 322 338 345 344 341 341 342 348 357 14 31 33 33 39 45 45 46 51 56 58 56 52 51 52 56 59 60 61 60 59 56 54 50 47 47 45 40 37 34 35 37 33 26 37 61 70 67 79 102 110 106 99 91 82 80 82
296 303 317 328 328 320 317 326 336 359 33 22 6 264 192 190 167 130 98 81 75 69 197 218 246 259 261 277 312 345 1 358 348 343 345 351 8 27 39 45 44 46 51 55 55 56 58 59 59 59 57 54 51 50 52 54 57 58 57 54 52 49 46 44 42 39 39 40 40 40 36 30 26 26 27 26 25 46 107 125 132 138 134 120 114
309 322 330 332 329 322 323 337 2 95 91 51 320 195 159 126 84 61 45 37 36 31 27 18 304 286 291 358 20 25 19 6 0 12 23 30 39 47 50 51 54 58 60 61 62 65 66 65 64 62 61 58 53 48 45 44 45 47 47 46 45 42 39 37 34 32 33 34 37 41 44 45 40 26 14 10 12 21 54 110 146 164 163 162 173
324 338 340 338 335 334 344 59 93 109 113 125 141 134 111 74 46 35 26 21 22 24 25 28 30 31 36 44 51 39 21 12 26 33 31 36 48 51 49 49 56 62 65 67 69 69 69 68 67 64 61 58 56 52 47 41 37 36 36 35 33 31 29 28 26 24 25 25 26 30 35 40 46 43 31 22 25 37 82 146 183 210 199 191 188
352 358 355 351 349 351 179 179 153 124 123 121 117 104 76 48 36 31 30 31 33 34 39 49 53 46 41 45 41 24 18 69 75 48 28 41 63 55 43 40 51 63 68 70 70 69 67 66 64 60 56 54 51 49 47 44 40 36 32 30 29 27 25 24 21 18 18 16 15 14 16 16 17 21 25 28 32 31 4 232 249 263 246 222 208
21 18 14 15 43 129 159 148 130 127 125 117 103 84 66 56 52 43 43 51 53 51 59 71 69 54 47 43 29 19 48 91 70 37 25 73 75 59 46 45 62 73 73 71 67 61 56 52 48 45 43 40 38 39 40 42 43 42 38 35 33 29 24 21 18 16 15 14 11 8 5 3 0 356 352 348 343 336 321 285 261 265 284 257 229
42 48 54 50 92 139 142 136 132 128 121 103 84 71 65 66 73 74 67 69 77 84 95 106 94 64 52 40 17 6 14 28 20 18 82 88 73 66 68 71 69 66 64 63 58 47 33 25 23 24 25 24 24 27 29 32 36 38 36 34 32 30 26 23 21 19 16 13 11 9 5 2 358 353 346 337 325 312 303 283 257 241 250 269 259
53 66 85 98 119 135 134 131 128 119 97 73 57 45 37 35 47 79 89 89 100 111 123 141 143 121 103 82 32 9 6 27 97 107 95 74 64 68 68 53 40 35 35 35 33 24 15 12 13 17 19 18 17 19 20 20 20 20 20 20 18 18 17 16 16 19 19 14 11 10 8 6 4 358 350 344 338 329 316 295 265 238 235 247 255
58 69 86 95 105 114 114 112 103 84 61 45 32 24 25 36 73 104 107 109 120 129 133 135 140 139 126 100 66 43 47 88 100 83 57 43 47 49 36 17 10 8 7 6 3 1 1 2 5 8 9 9 10 11 11 10 8 5 4 3 2 2 3 2 0 3 5 3 0 360 0 2 6 7 2 355 349 343 332 317 305 276 238 239 247
71 81 90 95 100 102 97 86 69 50 37 31 27 26 45 88 108 113 117 124 131 134 128 114 112 112 98 85 75 59 48 57 52 34 21 14 5 354 346 345 344 344 344 347 349 350 351 352 352 353 353 354 358 360 359 359 359 357 355 355 354 353 352 350 348 346 345 342 339 337 338 340 344 349 355 357 356 354 346 331 326 334 326 258 234
74 79 86 94 96 89 75 55 41 28 23 26 38 57 96 110 111 112 117 124 129 130 127 121 115 108 98 91 86 66 18 6 7 0 349 338 325 318 319 324 325 324 327 331 333 335 337 339 340 342 343 343 345 347 349 351 351 352 352 351 350 349 348 345 342 340 338 335 331 328 327 327 324 323 326 329 332 338 340 333 329 336 346 343 300
53 56 66 68 54 41 28 23 22 23 30 55 96 115 112 109 109 111 114 120 126 130 130 125 118 113 113 106 78 35 353 347 349 344 336 327 316 309 310 314 315 314 316 318 318 321 326 330 333 337 341 343 344 346 348 351 351 352 352 350 350 353 355 352 348 345 342 341 339 336 334 332 327 321 319 319 318 317 318 317 316 318 327 339 339
19 22 34 45 32 22 31 39 51 77 102 115 118 115 109 106 110 113 115 121 129 132 131 126 122 116 109 96 80 51 9 351 345 338 333 327 318 311 310 309 310 315 317 318 321 326 330 334 340 345 349 356 359 359 360 0 359 358 357 356 356 358 357 355 354 353 350 348 347 346 345 345 343 340 336 332 327 324 320 316 312 306 303 312 326
331 320 289 260 116 74 78 94 113 119 116 111 110 109 109 110 111 113 116 121 129 134 133 127 121 114 106 98 92 77 54 32 9 355 348 334 318 312 312 313 327 347 351 347 348 350 350 352 355 356 358 4 7 7 7 7 6 5 5 4 4 3 359 356 354 353 352 353 352 351 351 351 352 354 356 353 348 343 337 328 322 315 308 304 302
290 251 221 194 114 100 108 122 125 119 111 106 104 106 110 112 112 113 118 119 122 128 131 128 123 117 111 105 98 81 67 62 41 24 24 36 45 37 23 15 24 31 28 16 7 7 7 6 3 360 359 359 1 3 4 5 4 6 7 6 5 3 0 358 356 354 353 355 355 353 353 354 354 355 358 358 359 359 356 349 342 334 325 318 311